When you browse on this site, cookies collect data to enhance your experience and personalize the content and advertising you see.
Visit our Privacy Policy to learn more. By continuing to use the site, you agree to this use of cookies and data.
  • In Österreich
  • Länderverzeichnis
  • Für 7 Tage
  • Wassertemperatur
  • Satellitenkarten
  • Wetterkarte
  • News
  • Widgets
  • user-avatar
    Anmelden

    Stündliche Wetter Quito

    Heute, 22 Juli, Montag

    Zeit Temperatur Niederschläge Wind Luftdruck Luftfeuchtigkeit
    00:00 +11°C° 0 mm 1 m/S 622 mmHg 31%
    01:00 +11°C° 0 mm 1 m/S 622 mmHg 34%
    02:00 +10°C° 0 mm 1 m/S 622 mmHg 35%
    03:00 +10°C° 0 mm 1 m/S 622 mmHg 36%
    04:00 +9°C° 0 mm 1 m/S 622 mmHg 37%
    05:00 +10°C° 0 mm 1 m/S 622 mmHg 36%
    06:00 +10°C° 0 mm 1 m/S 623 mmHg 34%
    07:00 +12°C° 0 mm 1 m/S 624 mmHg 32%
    08:00 +16°C° 0 mm 2 m/S 625 mmHg 26%
    09:00 +20°C° 0 mm 3 m/S 626 mmHg 21%
    10:00 +23°C° 0 mm 4 m/S 627 mmHg 15%
    11:00 +26°C° 0 mm 4 m/S 626 mmHg 15%
    12:00 +27°C° 0 mm 3 m/S 626 mmHg 14%
    13:00 +28°C° 0 mm 3 m/S 625 mmHg 13%
    14:00 +28°C° 0 mm 3 m/S 625 mmHg 13%
    15:00 +28°C° 0 mm 2 m/S 624 mmHg 12%
    16:00 +28°C° 0 mm 2 m/S 624 mmHg 12%
    17:00 +25°C° 0 mm 1 m/S 623 mmHg 16%
    18:00 +21°C° 0 mm 1 m/S 622 mmHg 21%
    19:00 +15°C° 0 mm 0 m/S 622 mmHg 25%
    20:00 +15°C° 0 mm 0 m/S 622 mmHg 26%
    21:00 +14°C° 0 mm 0 m/S 622 mmHg 28%
    22:00 +13°C° 0 mm 0 m/S 622 mmHg 29%
    23:00 +12°C° 0 mm 0 m/S 622 mmHg 31%

    Morgen, 23 Juli, Dienstag

    Zeit Temperatur Niederschläge Wind Luftdruck Luftfeuchtigkeit
    00:00 +12°C° 0 mm 0 m/S 622 mmHg 33%
    01:00 +11°C° 0 mm 0 m/S 622 mmHg 34%
    02:00 +11°C° 0 mm 0 m/S 621 mmHg 36%
    03:00 +10°C° 0 mm 0 m/S 621 mmHg 37%
    04:00 +10°C° 0 mm 0 m/S 621 mmHg 38%
    05:00 +11°C° 0 mm 1 m/S 621 mmHg 38%
    06:00 +12°C° 0 mm 1 m/S 622 mmHg 37%
    07:00 +12°C° 0 mm 1 m/S 623 mmHg 37%
    08:00 +16°C° 0 mm 2 m/S 624 mmHg 30%
    09:00 +20°C° 0 mm 3 m/S 625 mmHg 24%
    10:00 +25°C° 0 mm 4 m/S 626 mmHg 18%
    11:00 +26°C° 0 mm 3 m/S 626 mmHg 17%
    12:00 +28°C° 0 mm 3 m/S 626 mmHg 15%
    13:00 +29°C° 0 mm 2 m/S 626 mmHg 13%
    14:00 +29°C° 0 mm 2 m/S 625 mmHg 13%
    15:00 +29°C° 0 mm 2 m/S 625 mmHg 13%
    16:00 +29°C° 0 mm 2 m/S 624 mmHg 13%
    17:00 +25°C° 0 mm 1 m/S 623 mmHg 16%
    18:00 +22°C° 0 mm 1 m/S 623 mmHg 19%
    19:00 +19°C° 0 mm 1 m/S 622 mmHg 23%
    20:00 +18°C° 0 mm 1 m/S 622 mmHg 24%
    21:00 +15°C° 0 mm 0 m/S 622 mmHg 25%
    22:00 +14°C° 0 mm 0 m/S 622 mmHg 26%
    23:00 +13°C° 0 mm 0 m/S 622 mmHg 27%

    übermorgen, 24 Juli, Mittwoch

    Zeit Temperatur Niederschläge Wind Luftdruck Luftfeuchtigkeit
    00:00 +14°C° 0 mm 1 m/S 621 mmHg 28%
    01:00 +13°C° 0 mm 1 m/S 621 mmHg 28%
    02:00 +13°C° 0 mm 1 m/S 621 mmHg 30%
    03:00 +12°C° 0 mm 1 m/S 621 mmHg 31%
    04:00 +12°C° 0 mm 1 m/S 620 mmHg 33%
    05:00 +12°C° 0 mm 1 m/S 621 mmHg 34%
    06:00 +13°C° 0 mm 1 m/S 622 mmHg 34%
    07:00 +13°C° 0 mm 1 m/S 622 mmHg 35%
    08:00 +17°C° 0 mm 2 m/S 623 mmHg 29%
    09:00 +21°C° 0 mm 2 m/S 624 mmHg 24%
    10:00 +25°C° 0 mm 3 m/S 625 mmHg 18%
    11:00 +27°C° 0 mm 3 m/S 625 mmHg 16%
    12:00 +28°C° 0 mm 3 m/S 625 mmHg 14%
    13:00 +30°C° 0 mm 3 m/S 624 mmHg 12%
    14:00 +30°C° 0 mm 2 m/S 624 mmHg 12%
    15:00 +30°C° 0 mm 2 m/S 623 mmHg 12%
    16:00 +29°C° 0 mm 2 m/S 623 mmHg 11%
    17:00 +26°C° 0 mm 2 m/S 622 mmHg 15%
    18:00 +23°C° 0 mm 1 m/S 622 mmHg 18%
    19:00 +20°C° 0 mm 1 m/S 621 mmHg 21%
    20:00 +19°C° 0 mm 1 m/S 622 mmHg 21%
    21:00 +18°C° 0 mm 1 m/S 622 mmHg 22%
    22:00 +18°C° 0 mm 1 m/S 622 mmHg 23%
    23:00 +16°C° 0 mm 1 m/S 622 mmHg 24%

    25 Juli, Donnerstag

    Zeit Temperatur Niederschläge Wind Luftdruck Luftfeuchtigkeit
    00:00 +15°C° 0 mm 1 m/S 622 mmHg 25%
    01:00 +14°C° 0 mm 2 m/S 622 mmHg 27%
    02:00 +13°C° 0 mm 1 m/S 621 mmHg 28%
    03:00 +13°C° 0 mm 1 m/S 621 mmHg 30%
    04:00 +12°C° 0 mm 1 m/S 621 mmHg 31%
    05:00 +12°C° 0 mm 1 m/S 622 mmHg 31%
    06:00 +12°C° 0 mm 1 m/S 622 mmHg 31%
    07:00 +12°C° 0 mm 1 m/S 623 mmHg 31%
    08:00 +17°C° 0 mm 2 m/S 624 mmHg 25%
    09:00 +21°C° 0 mm 3 m/S 625 mmHg 19%
    10:00 +26°C° 0 mm 4 m/S 626 mmHg 13%
    11:00 +28°C° 0 mm 3 m/S 626 mmHg 12%
    12:00 +29°C° 0 mm 3 m/S 626 mmHg 11%
    13:00 +30°C° 0 mm 3 m/S 625 mmHg 10%
    14:00 +30°C° 0 mm 2 m/S 625 mmHg 10%
    15:00 +30°C° 0 mm 2 m/S 624 mmHg 10%
    16:00 +30°C° 0 mm 2 m/S 624 mmHg 9%
    17:00 +26°C° 0 mm 2 m/S 623 mmHg 12%
    18:00 +23°C° 0 mm 1 m/S 622 mmHg 15%
    19:00 +19°C° 0 mm 1 m/S 622 mmHg 17%
    20:00 +18°C° 0 mm 1 m/S 622 mmHg 18%
    21:00 +16°C° 0 mm 1 m/S 622 mmHg 19%
    22:00 +15°C° 0 mm 1 m/S 623 mmHg 20%
    23:00 +15°C° 0 mm 1 m/S 622 mmHg 21%

    26 Juli, Freitag

    Zeit Temperatur Niederschläge Wind Luftdruck Luftfeuchtigkeit
    00:00 +14°C° 0 mm 1 m/S 622 mmHg 22%
    01:00 +14°C° 0 mm 1 m/S 622 mmHg 22%
    02:00 +13°C° 0 mm 1 m/S 622 mmHg 23%
    03:00 +12°C° 0 mm 1 m/S 622 mmHg 24%
    04:00 +12°C° 0 mm 1 m/S 621 mmHg 24%
    05:00 +12°C° 0 mm 1 m/S 622 mmHg 24%
    06:00 +12°C° 0 mm 1 m/S 623 mmHg 24%
    07:00 +13°C° 0 mm 1 m/S 623 mmHg 24%
    08:00 +17°C° 0 mm 2 m/S 624 mmHg 19%
    09:00 +21°C° 0 mm 3 m/S 625 mmHg 15%
    10:00 +26°C° 0 mm 4 m/S 626 mmHg 11%
    11:00 +27°C° 0 mm 4 m/S 626 mmHg 10%
    12:00 +28°C° 0 mm 4 m/S 626 mmHg 9%
    13:00 +30°C° 0 mm 3 m/S 625 mmHg 8%
    14:00 +30°C° 0 mm 3 m/S 625 mmHg 7%
    15:00 +30°C° 0 mm 3 m/S 624 mmHg 7%
    16:00 +30°C° 0 mm 3 m/S 624 mmHg 7%
    17:00 +26°C° 0 mm 2 m/S 623 mmHg 9%
    18:00 +21°C° 0 mm 2 m/S 622 mmHg 12%
    19:00 +18°C° 0 mm 1 m/S 621 mmHg 15%
    20:00 +16°C° 0 mm 1 m/S 622 mmHg 16%
    21:00 +15°C° 0 mm 1 m/S 622 mmHg 18%
    22:00 +14°C° 0 mm 1 m/S 622 mmHg 19%
    23:00 +13°C° 0 mm 1 m/S 622 mmHg 20%

    27 Juli, Samstag

    Zeit Temperatur Niederschläge Wind Luftdruck Luftfeuchtigkeit
    00:00 +13°C° 0 mm 1 m/S 622 mmHg 22%
    01:00 +12°C° 0 mm 1 m/S 621 mmHg 23%
    02:00 +12°C° 0 mm 1 m/S 621 mmHg 24%
    03:00 +11°C° 0 mm 1 m/S 621 mmHg 26%
    04:00 +11°C° 0 mm 1 m/S 621 mmHg 27%
    05:00 +11°C° 0 mm 1 m/S 622 mmHg 27%
    06:00 +12°C° 0 mm 1 m/S 622 mmHg 26%
    07:00 +12°C° 0 mm 1 m/S 623 mmHg 26%
    08:00 +16°C° 0 mm 2 m/S 624 mmHg 21%
    09:00 +20°C° 0 mm 3 m/S 625 mmHg 16%
    10:00 +25°C° 0 mm 4 m/S 626 mmHg 11%
    11:00 +27°C° 0 mm 4 m/S 625 mmHg 10%
    12:00 +28°C° 0 mm 3 m/S 625 mmHg 9%
    13:00 +30°C° 0 mm 2 m/S 625 mmHg 7%
    14:00 +30°C° 0 mm 2 m/S 624 mmHg 7%
    15:00 +29°C° 0 mm 2 m/S 624 mmHg 7%
    16:00 +29°C° 0 mm 2 m/S 623 mmHg 7%
    17:00 +25°C° 0 mm 1 m/S 622 mmHg 10%
    18:00 +21°C° 0 mm 1 m/S 621 mmHg 13%
    19:00 +15°C° 0 mm 0 m/S 620 mmHg 16%
    20:00 +15°C° 0 mm 0 m/S 621 mmHg 17%
    21:00 +14°C° 0 mm 0 m/S 621 mmHg 17%
    22:00 +13°C° 0 mm 0 m/S 621 mmHg 18%
    23:00 +14°C° 0 mm 1 m/S 621 mmHg 19%
    Mehr zeigen